Regional Weather Roundup
Issued by NWS

Home | Current Version | Previous Version | Graphics & Text | Print | Product List | Glossary On
Versions: 1 2 3 4 5 6 7 8 9 10 11 12 13 14 15 16 17 18 19 20 21 22 23 24 25 26 27 28 29 30 31 32 33 34 35 36 37 38 39 40 41 42 43 44 45 46 47 48 49 50
000
ASUS43 KMKX 050021
RWRWI

WISCONSIN REGIONAL WEATHER ROUNDUP
NATIONAL WEATHER SERVICE MILWAUKEE/SULLIVAN WI
700 PM CDT WED MAY 04 2016

NOTE: "FAIR" INDICATES FEW OR NO CLOUDS BELOW 12,000 FEET WITH NO
SIGNIFICANT WEATHER AND/OR OBSTRUCTIONS TO VISIBILITY.

WIZ001-002-006>008-014>016-023>028-050100-
NORTHWEST WISCONSIN

CITY           SKY/WX    TMP DP  RH WIND       PRES   REMARKS
SUPERIOR ARPT  SUNNY     49  28  44 NE8       29.98S
6HR MIN TEMP:  49; 6HR MAX TEMP:  57;

ASHLAND        SUNNY     50  34  54 N8        29.99S
6HR MIN TEMP:  50; 6HR MAX TEMP:  57;

HAYWARD        SUNNY     57  26  30 NE9       29.96R
6HR MIN TEMP:  56; 6HR MAX TEMP:  60;

SIREN          SUNNY     62  18  17 NE9       29.95R
6HR MIN TEMP:  60; 6HR MAX TEMP:  64;

CUMBERLAND     SUNNY     59  18  20 NE14      29.95R
RICE LAKE      SUNNY     61  17  18 N13       29.95R
6HR MIN TEMP:  59; 6HR MAX TEMP:  63;

CHETEK         SUNNY     59  21  23 N9G17     29.94R
6HR MIN TEMP:  58; 6HR MAX TEMP:  62;

LADYSMITH      SUNNY     55  23  28 N16G24    29.97R
6HR MIN TEMP:  55; 6HR MAX TEMP:  59;

EAU CLAIRE     SUNNY     61  18  18 N14       29.92R
6HR MIN TEMP:  58; 6HR MAX TEMP:  64;

MENOMONIE      SUNNY     63  18  17 N14G20    29.93R
NEW RICHMOND   SUNNY     63  17  16 N10       29.94S
6HR MIN TEMP:  60; 6HR MAX TEMP:  65;

OSCEOLA        SUNNY     64  21  19 N8        29.97R
6HR MIN TEMP:  61; 6HR MAX TEMP:  66;

$$

WIZ003>005-009-010-017-018-050100-
NORTH CENTRAL WISCONSIN

CITY           SKY/WX    TMP DP  RH WIND       PRES   REMARKS
MANITOWISH WTR MOSUNNY   48  31  53 N6        29.96R
6HR MIN TEMP:  44; 6HR MAX TEMP:  50;

ARBOR VITAE    SUNNY     49  32  51 N13       29.96R
6HR MIN TEMP:  46; 6HR MAX TEMP:  52;

WOODRUFF       SUNNY     49  32  51 N13       29.96R
6HR MIN TEMP:  46; 6HR MAX TEMP:  52;

RHINELANDER    SUNNY     48  30  49 N10       29.95R
6HR MIN TEMP:  45; 6HR MAX TEMP:  50;

EAGLE RIVER    SUNNY     45  29  53 N10G18    29.95R
LAND O LAKES   SUNNY     45  31  57 N12       29.96S
6HR MIN TEMP:  41; 6HR MAX TEMP:  46;

PHILLIPS       SUNNY     50  31  47 N14       29.95R
6HR MIN TEMP:  50; 6HR MAX TEMP:  53;

TOMAHAWK       SUNNY     49  31  49 N8        29.95R
6HR MIN TEMP:  49; 6HR MAX TEMP:  53;

MEDFORD        SUNNY     51  32  47 N13       29.92R
6HR MIN TEMP:  51; 6HR MAX TEMP:  56;

MERRILL        SUNNY     50  31  48 N14G22    29.94R
$$

WIZ029-030-035-036-043>047-050100-
CENTRAL WISCONSIN

CITY           SKY/WX    TMP DP  RH WIND       PRES   REMARKS
WAUSAU         SUNNY     53  30  41 N15G22    29.90R
6HR MIN TEMP:  53; 6HR MAX TEMP:  60;

MOSINEE        MOSUNNY   52  30  43 N15G23    29.92R
MARSHFIELD     SUNNY     55  29  36 N18G25    29.90R
6HR MIN TEMP:  55; 6HR MAX TEMP:  61;

STEVENS POINT  SUNNY     51  31  46 N14G21    29.91R
6HR MIN TEMP:  51; 6HR MAX TEMP:  58;

WAUPACA        CLOUDY    57  32  39 N10       29.89R
6HR MIN TEMP:  55; 6HR MAX TEMP:  60;

WAUTOMA        SUNNY     55  32  41 N13G23    29.88R
6HR MIN TEMP:  55; 6HR MAX TEMP:  60;

WISC RAPIDS    SUNNY     55  29  36 N18G28    29.91R
6HR MIN TEMP:  55; 6HR MAX TEMP:  63;

CAMP DOUGLAS   MOSUNNY   57  28  33 N15G23    29.88R
$$

WIZ011>013-019>022-031-037>040-048>050-050100-
NORTHEAST WISCONSIN

CITY           SKY/WX    TMP DP  RH WIND       PRES   REMARKS
ANTIGO         SUNNY     47  33  59 N17G25    29.92R
6HR MIN TEMP:  47; 6HR MAX TEMP:  51;

SHAWANO        PTCLDY    52  34  50 N20       29.89S
6HR MIN TEMP:  52; 6HR MAX TEMP:  58;

OCONTO         PTCLDY    47  33  58 N14G22    29.90R
6HR MIN TEMP:  47; 6HR MAX TEMP:  52;

STURGEON BAY   CLEAR     43  30  61 N16       29.92R
6HR MIN TEMP:  45; 6HR MAX TEMP:  48;

GREEN BAY      PTCLDY    50  35  56 NE18G24   29.89R
6HR MIN TEMP:  49; 6HR MAX TEMP:  54;

MANITOWOC      MOCLDY    48  34  58 N18G26    29.87R
6HR MIN TEMP:  47; 6HR MAX TEMP:  50;

APPLETON       MOCLDY    52  32  46 NE16      29.86R
CLINTONVILLE   CLOUDY    52  32  46 N13G20    29.89R
OSHKOSH        CLOUDY    51  38  60 NE12      29.86R
6HR MIN TEMP:  51; 6HR MAX TEMP:  57;

$$

WIZ032>034-041-042-053>061-050100-
SOUTHWEST WISCONSIN

CITY           SKY/WX    TMP DP  RH WIND       PRES   REMARKS
LA CROSSE      SUNNY     63  22  20 N16       29.89R
6HR MIN TEMP:  62; 6HR MAX TEMP:  66;

SPARTA         SUNNY     60  21  22 N14G20    29.90R
6HR MIN TEMP:  59; 6HR MAX TEMP:  64;

VIROQUA        SUNNY     59  22  23 N14G23    29.88R
6HR MIN TEMP:  56; 6HR MAX TEMP:  61;

BOSCOBEL       SUNNY     63  24  22 NW12G22   29.87R
6HR MIN TEMP:  61; 6HR MAX TEMP:  66;

PRAIRIE DU CHI SUNNY     62  24  23 NW14G22   29.87R
6HR MIN TEMP:  60; 6HR MAX TEMP:  64;

PLATTEVILLE    SUNNY     60  29  31 N20G29    29.85S
6HR MIN TEMP:  58; 6HR MAX TEMP:  63;

$$

WIZ056-057-062-063-064-067-068-050100-
SOUTH CENTRAL WISCONSIN

CITY           SKY/WX    TMP DP  RH WIND       PRES   REMARKS
REEDSBURG      SUNNY     58  26  29 N13G21    29.86R
6HR MIN TEMP:  57; 6HR MAX TEMP:  62;

BARABOO/DELLS  SUNNY     59  22  24 N15G23    29.85R
6HR MIN TEMP:  57; 6HR MAX TEMP:  62;

LONE ROCK      SUNNY     61  22  22 N15G25    29.86R
6HR MIN TEMP:  60; 6HR MAX TEMP:  64;

MINERAL POINT  SUNNY     61  19  20 N12       29.85R
MADISON        MOSUNNY   56  32  40 N15       29.83R
6HR MIN TEMP:  54; 6HR MAX TEMP:  60;

MIDDLETON      MOSUNNY   60  26  27 N20       29.84R
6HR MIN TEMP:  56; 6HR MAX TEMP:  62;

WATERTOWN      CLEAR     54  36  51 NE14G22   29.84R
6HR MIN TEMP:  51; 6HR MAX TEMP:  57;

MONROE         PTSUNNY   57  27  30 N13G26    29.83R
JANESVILLE     MOCLDY    59  34  38 N13G18    29.82R
$$

WIZ051-052-058>065-066-070>072-050100-
SOUTHEAST WISCONSIN

CITY           SKY/WX    TMP DP  RH WIND       PRES   REMARKS
MILWAUKEE      CLOUDY    43  35  73 N17G24    29.86R
6HR MIN TEMP:  43; 6HR MAX TEMP:  48;

WAUKESHA       MOCLDY    45  36  70 E9        29.85R
MILWAUKEE/TIMM MOCLDY    45  32  61 NE15      29.86R
RACINE         CLOUDY    42  34  73 N13G22    29.87R
6HR MIN TEMP:  42; 6HR MAX TEMP:  46;

BURLINGTON     CLOUDY    46  37  70 E9        29.85R
6HR MIN TEMP:  46; 6HR MAX TEMP:  53;

KENOSHA        CLOUDY    44  35  70 NE15      29.85R
6HR MIN TEMP:  44; 6HR MAX TEMP:  50;

FOND DU LAC    CLOUDY    51  37  58 NE14G22   29.87R
6HR MIN TEMP:  51; 6HR MAX TEMP:  56;

SHEBOYGAN      PTCLDY    44  36  73 NE12      29.87R
6HR MIN TEMP:  44; 6HR MAX TEMP:  50;

WEST BEND      CLOUDY    45  36  70 NE6       29.86R
JUNEAU         MOCLDY    53  37  55 N14       29.86R
6HR MIN TEMP:  50; 6HR MAX TEMP:  56;

$$

LSZ147-162-050100-
LAKE SUPERIOR

STATION/POSITION TIME  TEMP    WIND        PRES    WAVE
                       AIR SEA DIR/SP/G            HT/PER
                 (UTC) (F)     (DEG/KT/KT) (MB)    (FT/S)
W MID LAKE BUOY  2350   39 37  250/  4/  6 1016.5S   1/ 4
DEVILS ISLAND    0000   44     130/  6/  7 1016.2R
SAXON HARBOR     2340   44     310/  3/  7 1015.2F
$$

LMZ867-665-643>646-050100-
LAKE MICHIGAN

STATION/POSITION TIME  TEMP    WIND        PRES    WAVE
                       AIR SEA DIR/SP/G            HT/PER
                 (UTC) (F)     (DEG/KT/KT) (MB)    (FT/S)
CHAMBERS ISLAND  2300   45     340/ 15/ 20 1012.5R
N MID LAKE BUOY  2350   41 39  330/ 16/ 19 1011.8R   4/ 5
NORTHPORT PIER   2300   41     340/ 22/ 25 1012.2R
ALGOMA LAKESHORE C1F1C2F2C3F3C4F4C5F5C6F6C7F7C8M1C9M2Ca!


USA.gov is the U.S. government's official web portal to all federal, state and local government web resources and services.